Wind_Speed
2 3 13 10 8 10 12 9 4 8 8 8 10 13 14 15 20 27 31 31 35 36 36 36 37 38 40 40 37 29 19 15 8 6 7 13 16 24 29 29 30 28 27 25
12 17 22 20 24 20 16 13 13 13 9 9 14 15 20 21 22 26 28 27 27 29 32 34 34 35 36 38 40 40 28 21 16 6 4 13 19 26 29 30 30 26 25 22
2 7 1 15 16 21 20 18 7 5 6 8 14 16 18 19 20 22 23 23 29 29 30 31 34 33 34 33 33 37 41 34 27 19 10 6 14 28 28 28 28 23 26 25
2 7 6 4 9 19 22 16 14 10 10 12 17 18 20 18 16 20 20 25 29 27 26 25 26 27 26 28 30 31 34 36 38 32 27 18 9 20 24 29 31 29 28 26
1 6 7 8 9 6 6 11 11 10 4 10 11 6 21 21 22 23 20 21 24 22 21 22 24 26 28 27 28 28 29 30 31 33 34 32 27 26 17 9 18 25 27 29
1 4 3 4 17 14 7 8 13 14 14 14 4 4 5 17 21 21 19 16 22 23 19 20 23 22 24 28 30 28 25 24 23 24 26 27 28 31 27 27 23 16 9 13
5 4 4 13 20 4 3 3 10 12 13 16 7 9 11 15 16 15 18 18 21 23 23 20 19 20 22 24 27 27 24 20 19 19 20 19 20 23 22 20 19 17 20 22
3 4 3 26 5 5 6 12 11 11 10 14 15 13 14 14 16 17 17 18 21 22 22 18 17 17 20 23 21 22 23 21 19 17 15 14 15 15 15 15 16 14 18 17
5 3 6 12 17 16 14 12 12 12 10 13 15 15 12 14 15 16 17 18 19 20 18 19 18 18 18 19 19 19 20 22 21 18 17 15 13 14 15 13 12 13 14 14
3 4 9 10 12 13 10 11 12 14 14 13 14 11 12 12 13 14 16 18 17 18 19 21 20 18 17 15 16 16 18 20 21 20 19 17 16 16 15 15 14 14 13 14
4 8 11 9 9 10 13 14 13 13 13 12 8 10 8 9 10 11 12 15 16 18 17 18 18 19 17 17 16 15 15 16 18 19 20 20 18 18 18 18 16 14 14 14
2 12 8 7 8 8 11 12 13 10 11 10 7 7 6 7 8 10 13 14 16 17 16 14 15 17 18 16 17 17 15 15 14 15 16 17 17 14 14 15 14 15 15 14
5 8 13 13 10 8 11 9 8 9 9 7 7 6 6 7 8 7 11 14 16 15 14 14 12 13 15 17 15 15 16 14 12 12 11 13 13 12 11 11 11 13 13 12
11 14 11 7 8 9 11 10 7 7 6 6 6 6 7 9 8 9 11 14 14 14 12 12 11 11 12 12 13 12 10 11 12 11 10 10 10 10 8 8 7 7 9 8
8 4 15 14 10 15 12 9 5 6 6 5 5 6 8 9 9 9 9 11 13 13 13 13 12 10 10 11 12 12 11 11 10 9 9 8 8 8 7 6 5 5 5 3
9 10 14 14 13 12 9 5 3 6 4 4 3 4 7 8 8 8 9 10 12 14 14 13 14 13 11 10 10 10 11 11 10 9 8 7 8 8 7 4 2 3 4 5
21 18 17 13 10 8 5 4 4 5 6 6 4 3 3 4 6 7 8 10 12 12 13 12 11 11 11 10 10 9 9 10 10 8 6 6 8 8 9 6 3 3 4 5
11 14 11 6 7 8 9 7 7 6 5 5 4 2 2 3 4 5 6 9 11 12 11 12 11 8 9 10 10 11 10 9 9 9 7 6 5 5 6 6 6 6 7 8
11 16 14 9 7 8 9 8 7 6 5 4 3 2 4 5 6 7 8 7 10 16 16 13 14 9 8 10 10 11 11 9 8 7 7 8 4 3 5 6 6 7 7 7
13 13 13 11 9 7 9 9 7 5 3 2 2 3 3 4 6 7 8 10 13 15 19 17 15 11 8 9 10 11 10 10 9 8 6 5 5 6 7 7 8 8 8 8
14 14 12 11 12 11 8 6 4 2 1 3 4 5 7 8 7 7 8 10 12 18 17 14 13 10 9 9 11 12 11 9 9 7 6 4 4 6 7 7 8 8 9 9
15 14 13 12 10 8 6 4 2 0 3 4 4 4 4 6 7 8 8 10 14 17 15 13 13 8 8 9 11 11 10 9 8 9 9 8 7 6 6 7 7 8 8 8
15 14 13 12 9 7 5 4 2 1 1 2 2 5 5 6 9 11 12 13 14 13 11 9 10 8 8 10 11 10 9 10 10 9 9 9 8 9 10 9 9 9 9 10
17 16 13 11 9 7 6 4 4 2 1 3 5 6 6 6 9 11 14 12 9 9 10 9 8 10 12 13 14 12 9 9 8 8 8 11 11 10 10 10 10 11 11 11
16 14 13 12 10 9 5 4 3 3 5 6 8 10 12 10 11 13 15 12 10 8 10 11 11 12 14 13 13 12 8 9 8 8 10 10 10 11 11 10 10 11 12 12
16 13 11 10 6 7 5 5 7 8 10 11 10 11 12 12 10 12 12 12 12 12 12 13 13 14 13 12 13 12 10 11 12 12 13 13 12 10 11 13 13 13 13 12
15 14 12 10 9 8 6 7 8 12 13 12 13 10 10 11 12 11 11 12 10 12 12 11 12 14 15 15 13 12 12 13 13 13 13 12 12 12 13 12 12 13 14 14
Wind_Direction
181 54 71 25 96 104 96 91 44 100 96 59 43 49 37 42 42 37 31 28 31 31 30 31 32 32 34 38 34 17 15 31 8 283 258 249 246 244 233 219 211 206 207 217
44 62 69 59 50 66 84 99 109 111 96 75 67 53 39 34 31 33 30 29 26 31 31 29 28 31 34 35 41 39 26 34 31 17 258 235 212 201 214 203 197 201 211 223
60 323 234 48 54 59 60 42 26 49 86 92 66 52 40 34 30 33 35 27 27 29 29 29 29 27 29 32 35 43 41 35 43 35 29 200 195 185 185 183 184 197 203 207
11 341 53 85 40 73 63 45 43 82 98 100 99 74 50 37 35 38 39 30 26 26 28 29 31 31 30 32 34 37 43 41 39 47 43 44 61 172 173 185 188 189 196 205
70 54 137 57 18 345 37 49 39 43 90 153 156 89 43 40 49 41 42 29 26 25 27 29 30 31 30 30 31 32 37 42 44 40 48 45 49 50 39 101 155 172 183 192
22 62 70 13 330 318 267 53 24 41 38 45 286 56 22 34 40 45 45 27 22 23 27 30 28 24 32 31 28 27 28 33 43 50 47 54 53 60 61 54 50 59 69 169
26 91 88 352 330 327 72 31 33 53 53 51 75 83 69 58 48 48 48 34 16 19 27 33 32 28 32 35 26 24 26 28 30 37 53 53 56 55 54 56 56 54 55 60
357 53 14 355 25 55 94 66 52 62 78 79 83 78 77 61 51 41 37 23 16 18 27 33 35 36 35 33 27 19 26 29 31 35 36 44 57 66 65 68 66 69 73 65
21 88 76 45 69 80 88 85 67 67 77 91 93 80 66 54 41 32 27 19 13 19 29 36 37 34 36 32 24 18 24 29 33 35 38 41 45 51 64 74 78 77 78 77
106 94 94 79 73 71 79 96 85 80 93 108 99 78 64 48 39 28 21 17 14 23 34 36 35 35 35 32 27 21 25 26 32 37 37 39 48 58 61 60 61 64 73 78
79 123 109 88 86 88 90 98 90 82 86 94 87 72 62 58 47 36 29 22 21 30 36 37 35 35 31 34 35 29 27 24 24 27 33 38 39 51 60 68 69 77 81 80
139 150 103 110 106 103 102 97 97 94 87 82 67 65 31 43 29 22 27 28 27 29 34 35 31 31 31 27 34 27 32 32 27 24 26 31 38 48 64 72 75 78 78 77
127 145 123 128 117 112 117 105 96 93 94 89 71 45 37 30 17 12 20 28 29 28 27 28 28 26 28 27 26 28 24 27 26 28 23 25 35 50 55 68 85 88 85 85
126 126 112 113 117 124 138 122 97 90 90 86 68 48 41 48 36 31 30 25 23 26 31 30 25 24 27 22 20 29 19 22 24 25 25 20 23 30 38 46 56 67 76 75
140 152 140 138 143 147 156 151 113 90 95 96 72 58 46 35 39 37 38 35 26 21 22 22 19 20 17 17 9 11 13 13 12 12 12 13 13 4 2 7 20 39 47 34
158 149 150 151 139 149 159 144 112 109 116 124 83 50 39 23 25 27 28 28 17 18 13 8 5 5 3 4 360 357 8 5 358 1 0 357 3 5 9 4 306 330 357 25
147 149 158 153 157 162 167 135 119 115 106 102 93 57 11 14 17 16 14 23 21 11 4 359 359 356 351 346 348 350 355 355 359 1 3 357 348 0 17 30 30 5 4 5
194 180 178 172 170 153 141 138 132 120 109 96 84 67 25 14 11 17 6 8 4 1 6 356 351 343 329 329 340 346 346 341 340 342 352 351 342 338 349 357 5 359 350 346
171 171 176 170 148 145 141 137 133 127 121 109 85 47 20 10 357 355 350 343 343 343 356 3 356 341 317 315 322 331 337 339 342 346 345 347 354 336 326 331 341 346 344 336
161 167 165 160 154 157 153 148 142 130 110 98 36 12 356 343 332 331 334 339 345 351 346 344 345 334 314 315 320 325 324 324 331 334 343 336 334 336 333 332 333 334 340 347
169 167 168 164 160 156 152 141 129 113 45 8 355 327 309 305 309 320 328 339 343 352 348 339 340 328 315 316 320 325 324 314 309 309 320 338 326 318 321 320 322 324 326 328
167 166 166 163 159 154 150 151 142 19 339 331 330 341 316 308 318 322 331 334 336 342 339 333 339 329 326 328 326 322 322 322 319 310 300 291 294 310 318 315 318 319 322 324
175 174 172 166 163 166 172 166 200 173 40 67 36 28 34 24 7 353 333 327 326 334 339 338 350 352 336 333 331 331 318 312 318 315 314 309 297 299 298 296 304 300 300 304
181 177 175 177 176 171 163 134 142 149 345 321 310 313 321 332 343 346 347 341 335 344 358 1 357 358 6 3 352 337 323 310 324 337 319 311 304 302 303 307 305 308 308 298
183 183 187 189 182 173 174 170 181 246 272 291 299 299 297 300 319 333 339 335 328 327 340 345 340 339 345 347 344 346 318 321 322 320 324 333 316 298 300 307 303 313 318 303
189 193 198 198 206 211 207 235 260 290 301 297 283 283 267 269 289 315 330 329 325 327 328 333 335 337 334 335 334 341 336 332 329 316 321 326 326 301 298 311 309 316 323 320
183 186 189 194 201 215 241 268 280 290 292 291 301 300 286 273 290 312 321 327 331 333 331 326 325 327 329 325 323 325 323 326 326 324 323 324 320 314 302 306 314 315 318 321
Height
1412 1417 1413 1414 1407 1408 1415 1429 1436 1449 1457 1464 1464 1459 1461 1463 1457 1448 1443 1442 1438 1437 1435 1429 1424 1420 1413 1406 1402 1398 1392 1389 1388 1387 1387 1389 1390 1392 1395 1397 1401 1407 1410 1415
1426 1425 1423 1425 1425 1424 1430 1441 1449 1455 1463 1469 1468 1466 1463 1460 1457 1452 1453 1448 1450 1447 1441 1436 1431 1425 1420 1415 1407 1402 1399 1392 1388 1387 1386 1388 1387 1390 1393 1394 1398 1402 1407 1410
1433 1431 1426 1434 1449 1447 1449 1452 1452 1451 1464 1469 1469 1470 1469 1464 1463 1463 1458 1458 1453 1448 1443 1438 1432 1429 1424 1421 1417 1411 1405 1401 1394 1389 1388 1385 1385 1383 1388 1391 1392 1396 1401 1406
1437 1432 1443 1464 1463 1461 1463 1466 1465 1466 1470 1473 1473 1474 1472 1472 1472 1467 1465 1460 1455 1450 1448 1446 1443 1440 1436 1430 1424 1418 1412 1408 1402 1397 1394 1392 1389 1384 1385 1387 1389 1392 1396 1401
1435 1436 1456 1458 1467 1470 1465 1475 1475 1474 1472 1473 1473 1472 1476 1476 1472 1470 1466 1462 1462 1458 1455 1450 1445 1443 1439 1434 1429 1426 1421 1415 1411 1408 1402 1398 1393 1385 1387 1382 1384 1384 1391 1394
1438 1444 1458 1474 1470 1467 1464 1474 1480 1478 1476 1475 1472 1476 1480 1478 1475 1472 1470 1467 1463 1460 1457 1452 1451 1449 1443 1438 1436 1433 1429 1425 1420 1415 1411 1409 1404 1401 1395 1389 1396 1393 1396 1391
1447 1453 1467 1478 1465 1460 1462 1488 1483 1481 1480 1478 1478 1482 1483 1481 1479 1477 1472 1468 1466 1464 1459 1457 1457 1454 1449 1445 1443 1441 1435 1430 1427 1423 1417 1414 1410 1401 1402 1402 1398 1410 1401 1398
1461 1464 1473 1477 1469 1471 1487 1487 1486 1484 1483 1482 1482 1483 1483 1482 1479 1475 1473 1471 1469 1467 1463 1461 1460 1457 1454 1450 1448 1444 1439 1436 1432 1428 1426 1422 1415 1413 1410 1410 1406 1410 1400 1407
1478 1485 1490 1488 1486 1487 1488 1489 1489 1487 1486 1485 1486 1487 1486 1484 1481 1480 1477 1475 1474 1472 1469 1465 1462 1459 1456 1454 1451 1447 1444 1441 1436 1432 1429 1426 1422 1420 1415 1415 1415 1412 1409 1410
1485 1491 1490 1491 1491 1491 1492 1491 1490 1489 1488 1488 1488 1489 1489 1487 1486 1484 1482 1480 1478 1475 1471 1468 1465 1462 1460 1457 1454 1452 1447 1444 1441 1437 1434 1432 1429 1424 1421 1420 1418 1416 1417 1414
1489 1492 1493 1494 1495 1495 1494 1492 1492 1492 1492 1492 1492 1493 1492 1491 1490 1488 1486 1484 1480 1477 1474 1472 1469 1466 1464 1461 1458 1455 1452 1448 1444 1441 1438 1435 1434 1430 1428 1426 1427 1427 1425 1420
1486 1488 1490 1494 1495 1495 1494 1494 1494 1494 1494 1494 1494 1495 1495 1494 1493 1490 1487 1485 1482 1480 1478 1475 1473 1470 1467 1463 1460 1458 1456 1453 1450 1447 1444 1441 1438 1437 1434 1433 1431 1429 1427 1425
1486 1488 1489 1493 1495 1495 1494 1496 1497 1497 1497 1496 1496 1497 1496 1495 1495 1492 1488 1486 1484 1482 1480 1478 1475 1473 1470 1467 1464 1461 1459 1456 1454 1451 1448 1445 1442 1440 1439 1437 1435 1434 1432 1430
1488 1490 1493 1494 1495 1496 1495 1497 1498 1498 1498 1498 1498 1498 1498 1496 1496 1494 1490 1488 1486 1485 1483 1480 1478 1475 1473 1470 1468 1465 1463 1460 1457 1455 1452 1449 1447 1444 1443 1442 1440 1437 1435 1434
1490 1490 1492 1495 1496 1497 1497 1498 1498 1499 1500 1500 1499 1499 1498 1498 1496 1495 1493 1491 1488 1486 1484 1481 1479 1477 1474 1472 1469 1466 1464 1461 1459 1456 1454 1452 1450 1447 1445 1444 1443 1441 1440 1438
1490 1492 1494 1496 1498 1498 1499 1498 1498 1499 1500 1500 1499 1499 1499 1500 1498 1496 1494 1491 1489 1486 1484 1482 1480 1477 1475 1473 1471 1468 1465 1462 1460 1458 1456 1453 1452 1450 1448 1447 1445 1443 1441 1441
1489 1493 1494 1496 1498 1498 1498 1497 1499 1500 1500 1499 1500 1500 1500 1500 1498 1496 1494 1492 1490 1488 1485 1483 1481 1478 1476 1473 1471 1468 1466 1463 1461 1459 1457 1455 1453 1452 1450 1448 1447 1446 1444 1443
1489 1491 1494 1495 1496 1496 1497 1499 1499 1500 1500 1500 1501 1501 1500 1499 1497 1495 1494 1491 1490 1488 1486 1483 1481 1478 1476 1474 1471 1468 1466 1464 1462 1460 1458 1456 1455 1453 1452 1450 1449 1447 1446 1445
1490 1491 1493 1495 1496 1497 1498 1499 1500 1501 1501 1501 1501 1501 1500 1498 1496 1495 1493 1492 1490 1487 1485 1482 1480 1478 1475 1473 1471 1469 1466 1464 1462 1460 1459 1457 1456 1454 1453 1451 1450 1449 1448 1446
1490 1492 1494 1495 1497 1498 1498 1499 1500 1501 1501 1501 1501 1500 1499 1498 1496 1495 1493 1491 1489 1486 1483 1481 1479 1476 1474 1472 1470 1468 1466 1464 1462 1461 1459 1457 1456 1455 1453 1452 1451 1449 1448 1447
1490 1492 1494 1495 1497 1498 1499 1500 1500 1501 1501 1500 1500 1500 1499 1497 1496 1494 1492 1490 1488 1485 1482 1479 1477 1475 1473 1471 1469 1466 1464 1463 1461 1460 1459 1457 1455 1454 1453 1452 1450 1449 1448 1447
1490 1492 1494 1495 1497 1498 1498 1499 1500 1500 1500 1500 1500 1499 1497 1496 1495 1493 1491 1489 1486 1484 1481 1479 1476 1474 1472 1470 1468 1466 1464 1462 1460 1459 1458 1456 1455 1454 1452 1451 1450 1449 1447 1446
1489 1491 1493 1495 1496 1497 1498 1498 1499 1499 1500 1499 1499 1498 1497 1495 1494 1492 1490 1488 1485 1482 1480 1478 1476 1473 1471 1470 1467 1465 1463 1461 1459 1458 1456 1455 1454 1453 1451 1450 1449 1448 1447 1446
1488 1490 1492 1493 1495 1496 1497 1497 1497 1498 1498 1497 1497 1495 1494 1493 1492 1490 1488 1486 1483 1481 1479 1477 1475 1473 1471 1469 1466 1464 1462 1460 1459 1457 1455 1454 1452 1451 1449 1448 1447 1446 1445 1444
1488 1490 1491 1492 1493 1494 1495 1496 1496 1496 1495 1494 1494 1492 1491 1490 1490 1488 1486 1484 1482 1480 1478 1476 1474 1472 1470 1468 1466 1463 1461 1459 1457 1456 1454 1452 1450 1448 1447 1446 1445 1443 1442 1440
1486 1488 1490 1492 1492 1493 1493 1493 1493 1492 1492 1491 1490 1489 1488 1487 1487 1485 1484 1482 1480 1478 1476 1474 1472 1470 1468 1466 1464 1462 1460 1458 1456 1454 1452 1450 1448 1446 1445 1443 1442 1440 1439 1437
1485 1487 1489 1490 1490 1490 1491 1491 1490 1490 1489 1488 1486 1484 1484 1483 1483 1482 1480 1479 1477 1475 1473 1471 1470 1468 1466 1464 1461 1460 1458 1455 1453 1451 1449 1448 1446 1444 1442 1441 1439 1438 1436 1435